Back to catalog

OSCAR 25

AliveAmateur RadioPO
NORAD 19419·PAYLOAD·🇺🇸 United States

Launched Aug 25, 1988 from Vandenberg Space Force Base

Loading…

Next Passes (next 24 hours)

TLE

FreshSource: Space-Track

Epoch: Sep 14, 2026, 07:51 UTC

1 19419U 88074A   26257.32728641  .00000075  00000-0  11303-3 0  9999
2 19419  90.0488  21.3262 0096384 178.9087 209.6451 13.42669720863386

Track OSCAR 25 in real time with AllMySat

Download on the App Store